Lethbridge,

6:20 AM MDT on July 23, 2017 (GMT -0600)
Lethbridge

Weather History for CYQL - December, 2013

Change the Weather History Date:

Friday, December 6, 2013

  Actual Average Record
Temperature  
Mean Temperature -24 °F -  
Max Temperature -18 °F 33 °F 53 °F (2000)
Min Temperature -29 °F 14 °F -29 °F (2013)
Degree Days  
Heating Degree Days 88    
Moisture  
Dew Point -27 °F    
Average Humidity 73    
Maximum Humidity 84    
Minimum Humidity 54    
Precipitation  
Precipitation 0.00 in - - ()
Sea Level Pressure  
Sea Level Pressure 30.82 in    
Wind  
Wind Speed 12 mph ()    
Max Wind Speed 17 mph    
Max Gust Speed -    
Visibility 8.7 miles    
Events Snow    
Averages and records for this station are not official NWS values.
T = Trace of Precipitation, MM = Missing Value Source: Averaged Metar Reports

Daily Weather History Graph

Daily Weather History Graph

Search for Another Location

Airport or City:

Trip Planner

Search our weather history database for the weather conditions in past years. The results will help you decide how hot, cold, wet, or windy it might be!

Date:

Astronomy

Dec. 06, 2013 Rise Set
Actual Time 8:12 AM MST 4:31 PM MST
Civil Twilight 7:35 AM MST 5:09 PM MST
Nautical Twilight 6:54 AM MST 5:49 PM MST
Astronomical Twilight 6:15 AM MST 6:28 PM MST
Moon 11:07 AM MST (12/6) 9:24 PM MST (12/6)
Length of Visible Light 9h 33m
Length of Day
8h 18m
Waxing Crescent, 20% of the Moon is Illuminated
Dec 6
Waxing Crescent
Dec 9
First Quarter
Dec 17
Full
Dec 25
Last Quarter
Jan 1
New

Hourly Weather History & Observations

Time (MST) Temp. Windchill Dew Point Humidity Pressure Visibility Wind Dir Wind Speed Gust Speed Precip Events Conditions
12:00 AM -18.4 °F -42.1 °F -22.0 °F 84% 30.81 in 8.0 mi WNW 13.8 mph - N/A   Scattered Clouds
12:02 AM -16.6 °F -39.8 °F -22.0 °F 76% 30.80 in 6.0 mi WNW 13.8 mph - N/A   Haze
12:05 AM -16.6 °F -39.8 °F -22.0 °F 76% 30.80 in 5.0 mi WNW 13.8 mph - N/A   Haze
12:09 AM -16.6 °F -38.9 °F -22.0 °F 76% 30.80 in 6.0 mi WNW 12.7 mph - N/A Snow Light Snow
12:19 AM -16.6 °F -38.9 °F -22.0 °F 76% 30.80 in 9.0 mi WNW 12.7 mph - N/A   Scattered Clouds
12:39 AM -16.6 °F -39.8 °F -22.0 °F 76% 30.78 in 5.0 mi WNW 13.8 mph - N/A   Haze
12:51 AM -16.6 °F -38.9 °F -22.0 °F 76% 30.78 in 3.0 mi West 12.7 mph - N/A Snow Light Snow
1:00 AM -16.6 °F -38.9 °F -22.0 °F 76% 30.77 in 7.0 mi WNW 12.7 mph - N/A Snow Light Snow
1:10 AM -16.6 °F -38.9 °F -22.0 °F 76% 30.77 in 8.0 mi WNW 12.7 mph - N/A   Mostly Cloudy
1:12 AM -14.8 °F -36.6 °F -20.2 °F 77% 30.77 in 6.0 mi WNW 12.7 mph - N/A   Haze
1:13 AM -14.8 °F -36.6 °F -20.2 °F 77% 30.77 in 5.0 mi WNW 12.7 mph - N/A Snow Light Snow
1:29 AM -16.6 °F -38.9 °F -22.0 °F 76% 30.77 in 6.0 mi West 12.7 mph - N/A Snow Light Snow
1:33 AM -16.6 °F -39.8 °F -22.0 °F 76% 30.79 in 9.0 mi WNW 13.8 mph - N/A Snow Light Snow
1:38 AM -16.6 °F -39.8 °F -22.0 °F 76% 30.77 in 9.0 mi WNW 13.8 mph - N/A Snow Light Snow
1:43 AM -16.6 °F -39.8 °F -22.0 °F 76% 30.79 in 9.0 mi WNW 13.8 mph - N/A   Scattered Clouds
1:51 AM -16.6 °F -39.8 °F -22.0 °F 76% 30.80 in 9.0 mi WNW 13.8 mph - N/A Snow Light Snow
2:00 AM -20.2 °F -41.3 °F -25.6 °F 76% 30.79 in 6.0 mi West 10.4 mph - N/A Snow Light Snow
2:02 AM -20.2 °F -40.1 °F -27.4 °F 69% 30.80 in 5.0 mi West 9.2 mph - N/A Snow Light Snow
2:03 AM -20.2 °F -40.1 °F -27.4 °F 69% 30.80 in 4.0 mi West 9.2 mph - N/A Snow Light Snow
2:09 AM -20.2 °F -41.3 °F -25.6 °F 76% 30.80 in 2.5 mi West 10.4 mph - N/A Snow Light Snow
2:12 AM -18.4 °F -40.2 °F -23.8 °F 76% 30.80 in 3.0 mi West 11.5 mph - N/A Snow Light Snow
2:16 AM -20.2 °F -41.3 °F -25.6 °F 76% 30.80 in 6.0 mi West 10.4 mph - N/A Snow Light Snow
2:17 AM -20.2 °F -41.3 °F -27.4 °F 69% 30.80 in 7.0 mi West 10.4 mph - N/A Snow Light Snow
2:24 AM -18.4 °F -39.1 °F -23.8 °F 76% 30.80 in 9.0 mi West 10.4 mph - N/A Snow Light Snow
2:25 AM -18.4 °F -40.2 °F -23.8 °F 76% 30.79 in 9.0 mi West 11.5 mph - N/A Snow Light Snow
2:46 AM -22.0 °F -45.7 °F -29.2 °F 69% 30.82 in 9.0 mi West 12.7 mph - N/A   Partly Cloudy
3:00 AM -22.0 °F -45.7 °F -27.4 °F 76% 30.79 in 9.0 mi West 12.7 mph - N/A   Scattered Clouds
3:37 AM -22.0 °F -44.7 °F -27.4 °F 76% 30.80 in 9.0 mi WSW 11.5 mph - N/A Snow Light Snow
4:01 AM -20.2 °F -45.2 °F -25.6 °F 76% 30.83 in 5.0 mi West 15.0 mph - N/A Snow Light Snow
4:12 AM -18.4 °F -42.9 °F -23.8 °F 76% 30.82 in 6.0 mi West 15.0 mph - N/A Snow Light Snow
4:39 AM -20.2 °F -45.2 °F -25.6 °F 76% 30.80 in 9.0 mi West 15.0 mph - N/A Snow Light Snow
5:00 AM -21 °F - -26 °F 63% 30.82 in 4 mi WNW 12.7 mph - - Snow Light Snow
5:00 AM -20.2 °F -43.4 °F -25.6 °F 76% 30.81 in 4.0 mi WNW 12.7 mph - N/A Snow Light Snow
5:09 AM -20.2 °F -43.4 °F -25.6 °F 76% 30.81 in 5.0 mi West 12.7 mph - N/A Snow Light Snow
5:20 AM -20.2 °F -43.4 °F -25.6 °F 76% 30.83 in 2.2 mi WNW 12.7 mph - N/A Snow Light Snow
6:00 AM -22.0 °F -45.7 °F -29.2 °F 69% 30.85 in 4.0 mi West 12.7 mph - N/A   Ice Crystals
7:00 AM -22.0 °F -46.6 °F -29.2 °F 69% 30.86 in 5.0 mi West 13.8 mph - N/A   Ice Crystals
8:00 AM -22.0 °F -45.7 °F -27.4 °F 76% 30.84 in 5.0 mi West 12.7 mph - N/A   Ice Crystals
9:00 AM -25.6 °F -46.8 °F -32.8 °F 69% 30.89 in 15.0 mi West 9.2 mph - N/A   Mostly Cloudy
10:00 AM -23.8 °F -48.9 °F -29.2 °F 76% 30.88 in 6.0 mi West 13.8 mph - N/A   Ice Crystals
11:00 AM -23 °F - -28 °F 63% 30.91 in 6 mi WSW 10.4 mph - -   Light Haze
11:00 AM -22.0 °F -44.7 °F -29.2 °F 69% 30.91 in 6.0 mi WSW 11.5 mph - N/A   Ice Crystals
12:00 PM -22.0 °F -42.3 °F -27.4 °F 76% 30.89 in 15.0 mi WSW 9.2 mph - N/A   Ice Crystals
1:00 PM -20.2 °F -41.3 °F -25.6 °F 76% 30.88 in 15.0 mi SW 10.4 mph - N/A   Ice Crystals
2:00 PM -18.4 °F -39.1 °F -23.8 °F 76% 30.85 in 20.0 mi WSW 10.4 mph - N/A   Clear
3:00 PM -20.2 °F -43.4 °F -25.6 °F 76% 30.87 in 20.0 mi West 12.7 mph - N/A   Clear
4:00 PM -23.8 °F -44.5 °F -29.2 °F 76% 30.88 in 20.0 mi WSW 9.2 mph - N/A   Partly Cloudy
5:00 PM -27 °F - -34 °F 54% 30.86 in 10 mi SW 11.5 mph - -  
5:00 PM -27.4 °F -50.3 °F -34.6 °F 69% 30.86 in 20.0 mi SW 10.4 mph - N/A   Partly Cloudy
6:00 PM -29.2 °F -53.7 °F -36.4 °F 68% 30.90 in 15.0 mi SW 11.5 mph - N/A   Clear
7:00 PM -29.2 °F -53.7 °F -36.4 °F 68% 30.87 in 15.0 mi WSW 11.5 mph - N/A   Clear
8:00 PM -29.2 °F -54.8 °F -36.4 °F 68% 30.86 in 15.0 mi WSW 12.7 mph - N/A   Clear
9:00 PM -29.2 °F -55.8 °F -36.4 °F 68% 30.86 in 15.0 mi SW 13.8 mph - N/A   Clear
10:00 PM -29.2 °F -56.8 °F -34.6 °F 75% 30.87 in 15.0 mi WSW 15.0 mph - N/A   Clear
11:00 PM -28 °F - -35 °F 55% 30.85 in 10 mi SW 15.0 mph - -  
11:00 PM -27.4 °F -56.1 °F -34.6 °F 69% 30.85 in 9.0 mi SW 17.3 mph - N/A   Clear